Date String (YYYY-MM-DD hh:mm:ss) UTC,Instrument flags,Ambient pressure (hPa),Sample flow (lpm),Bypass flow (lpm),Sample temperature (°C),Ambient temperature (°C),ASC tube jacket temperature (°C),LED temperature (°C),Box temperature (°C),Sample RH (%),Span deviation,Mass concentration (μg/m³),Mass concentration (μg/m³),Mass concentration (μg/m³)
DateTimeUTC,F1_M11,P_M11,Q1_M11,Q2_M11,T1_M11,T2_M11,T3_M11,T4_M11,T5_M11,U1_M11,ZSPAN_M11,X0_M11,X2_M11,X1_M11
2022-07-10 19:00:00,,0829.8,5.00,0.00,39.2,38.5,00.0,47.7,40.5,08.5,0000.0,0011.23,0005.23,0004.67
2022-07-10 19:01:00,,0829.8,4.99,0.00,39.3,38.6,00.0,47.8,40.5,08.6,0000.0,0011.67,0005.24,0004.66
2022-07-10 19:02:00,,0829.8,5.00,0.00,39.3,36.3,00.0,47.3,40.5,08.4,0000.0,0011.84,0005.22,0004.65
2022-07-10 19:03:00,,0829.7,5.00,0.00,39.3,38.6,00.0,47.8,40.6,08.4,0000.0,0011.71,0005.23,0004.64
2022-07-10 19:04:00,,0829.7,5.01,0.00,39.4,38.7,00.0,47.8,40.6,08.5,0000.0,0011.27,0005.25,0004.63
2022-07-10 19:05:00,,0829.7,5.00,0.00,39.4,38.7,00.0,47.9,40.6,08.5,0000.0,0010.62,0005.20,0004.61
2022-07-10 19:06:00,,0829.8,5.00,0.00,39.4,38.7,00.0,47.9,40.6,08.5,0000.0,0010.39,0005.14,0004.59
2022-07-10 19:07:00,,0829.6,4.99,0.00,39.5,38.7,00.0,47.9,40.7,08.5,0000.0,0009.92,0005.09,0004.57
2022-07-10 19:08:00,,0829.6,5.01,0.00,39.5,38.8,00.0,48.0,40.7,08.5,0000.0,0009.58,0005.02,0004.56
2022-07-10 19:09:00,,0829.6,5.01,0.00,39.5,38.8,00.0,48.0,40.7,08.5,0000.0,0009.37,0005.00,0004.57
2022-07-10 19:10:00,,0829.5,4.99,0.00,39.6,38.8,00.0,48.0,40.8,08.8,0000.0,0009.20,0005.04,0004.57
2022-07-10 19:11:00,,0829.5,4.99,0.00,39.6,38.9,00.0,48.1,40.8,09.0,0000.0,0009.30,0005.08,0004.59
2022-07-10 19:12:00,,0829.6,5.01,0.00,39.6,38.9,00.0,48.1,40.8,08.9,0000.0,0009.18,0005.08,0004.58
2022-07-10 19:13:00,,0829.6,4.99,0.00,39.6,38.9,00.0,48.1,40.8,09.0,0000.0,0008.73,0005.06,0004.57
2022-07-10 19:14:00,,0829.6,5.00,0.00,39.7,38.9,00.0,48.2,40.9,08.8,0000.0,0008.68,0005.04,0004.56
2022-07-10 19:15:00,,0829.5,5.00,0.00,39.7,39.0,00.0,48.2,40.9,08.5,0000.0,0008.54,0005.00,0004.56
2022-07-10 19:16:00,,0829.5,5.01,0.00,39.7,39.0,00.0,48.2,40.9,08.4,0000.0,0008.63,0005.01,0004.57
2022-07-10 19:17:00,,0829.6,5.00,0.00,39.8,39.0,00.0,48.2,40.9,08.7,0000.0,0008.64,0005.02,0004.57
2022-07-10 19:18:00,,0829.6,4.99,0.00,39.8,39.1,00.0,48.3,41.0,08.6,0000.0,0008.82,0005.03,0004.55
2022-07-10 19:19:00,,0829.6,5.00,0.00,39.8,39.1,00.0,48.3,41.0,08.5,0000.0,0009.76,0005.06,0004.56
2022-07-10 19:20:00,,0829.6,5.00,0.00,39.8,39.1,00.0,48.3,41.0,08.5,0000.0,0009.84,0005.09,0004.57
2022-07-10 19:21:00,,0829.5,5.00,0.00,39.9,39.1,00.0,48.3,41.0,08.6,0000.0,0009.73,0005.06,0004.56
2022-07-10 19:22:00,,0829.5,5.00,0.00,39.9,39.2,00.0,48.4,41.1,08.7,0000.0,0009.75,0005.04,0004.55
2022-07-10 19:23:00,,0829.5,5.00,0.00,39.9,39.2,00.0,48.4,41.1,08.6,0000.0,0009.40,0005.02,0004.56
2022-07-10 19:24:00,,0829.5,4.99,0.00,40.0,39.2,00.0,48.4,41.1,08.5,0000.0,0009.07,0005.01,0004.56
2022-07-10 19:25:00,,0829.6,5.01,0.00,40.0,39.2,00.0,48.5,41.1,08.8,0000.0,0009.15,0005.05,0004.58
2022-07-10 19:26:00,,0829.6,5.01,0.00,40.0,39.2,00.0,48.5,41.2,09.1,0000.0,0009.42,0005.09,0004.59
2022-07-10 19:27:00,,0829.6,5.00,0.00,40.0,39.2,00.0,48.5,41.2,08.8,0000.0,0009.44,0005.13,0004.59
2022-07-10 19:28:00,,0829.5,5.01,0.00,40.1,39.3,00.0,48.5,41.2,08.8,0000.0,0009.53,0005.16,0004.60
2022-07-10 19:29:00,,0829.5,5.00,0.00,40.1,39.3,00.0,48.6,41.2,09.0,0000.0,0009.64,0005.21,0004.63
2022-07-10 19:30:00,,0829.6,5.00,0.00,40.1,39.3,00.0,48.6,41.2,09.2,0000.0,0008.73,0005.21,0004.63
2022-07-10 19:31:00,,0829.5,5.00,0.00,40.1,39.3,00.0,48.6,41.3,09.6,0000.0,0008.80,0005.22,0004.63
2022-07-10 19:32:00,,0829.5,5.01,0.00,40.2,39.4,00.0,48.6,41.3,09.5,0000.0,0009.23,0005.22,0004.63
2022-07-10 19:33:00,,0829.5,4.99,0.00,40.2,39.4,00.0,48.7,41.3,08.9,0000.0,0009.84,0005.23,0004.64
2022-07-10 19:34:00,,0829.5,4.99,0.00,40.2,39.4,00.0,48.7,41.3,08.8,0000.0,0010.04,0005.26,0004.65
2022-07-10 19:35:00,,0829.5,5.01,0.00,40.2,39.4,00.0,48.7,41.4,08.7,0000.0,0011.55,0005.31,0004.65
2022-07-10 19:36:00,,0829.5,5.00,0.00,40.3,39.5,00.0,48.7,41.4,08.6,0000.0,0012.12,0005.29,0004.65
2022-07-10 19:37:00,,0829.4,5.02,0.00,40.3,39.5,00.0,48.8,41.4,08.7,0000.0,0011.95,0005.27,0004.64
2022-07-10 19:38:00,,0829.5,5.00,0.00,40.3,39.5,00.0,48.8,41.4,08.9,0000.0,0011.75,0005.22,0004.63
2022-07-10 19:39:00,,0829.4,5.00,0.00,40.3,39.5,00.0,48.8,41.4,08.8,0000.0,0011.86,0005.20,0004.62
2022-07-10 19:40:00,,0829.4,5.01,0.00,40.4,39.6,00.0,48.8,41.5,08.5,0000.0,0012.10,0005.18,0004.61
2022-07-10 19:41:00,,0829.3,5.00,0.00,40.4,39.6,00.0,48.9,41.5,08.6,0000.0,0012.50,0005.20,0004.61
2022-07-10 19:42:00,,0829.3,4.99,0.00,40.4,39.6,00.0,48.9,41.5,08.6,0000.0,0012.90,0005.20,0004.61
2022-07-10 19:43:00,,0829.2,5.00,0.00,40.4,39.6,00.0,48.9,41.5,08.8,0000.0,0012.47,0005.20,0004.62
2022-07-10 19:44:00,,0829.3,5.00,0.00,40.4,39.6,00.0,48.9,41.6,08.7,0000.0,0011.83,0005.17,0004.62
2022-07-10 19:45:00,,0829.2,5.00,0.00,40.5,39.7,00.0,49.0,41.6,08.6,0000.0,0011.69,0005.13,0004.60
2022-07-10 19:46:00,,0829.2,5.02,0.00,40.5,39.7,00.0,49.0,41.6,08.6,0000.0,0010.98,0005.14,0004.62
2022-07-10 19:47:00,,0829.3,4.99,0.00,40.5,39.7,00.0,49.0,41.6,08.5,0000.0,0010.42,0005.15,0004.62
2022-07-10 19:48:00,,0829.3,4.99,0.00,40.5,39.7,00.0,49.0,41.6,08.4,0000.0,0010.76,0005.14,0004.63
2022-07-10 19:49:00,,0829.2,5.00,0.00,40.6,39.7,00.0,49.1,41.7,08.3,0000.0,0011.34,0005.18,0004.65
2022-07-10 19:50:00,,0829.1,5.00,0.00,40.6,39.7,00.0,49.1,41.7,08.5,0000.0,0011.30,0005.22,0004.66
2022-07-10 19:51:00,,0829.1,5.00,0.00,40.6,39.8,00.0,49.1,41.7,08.4,0000.0,0011.05,0005.21,0004.65
2022-07-10 19:52:00,,0829.1,5.02,0.00,40.6,39.8,00.0,49.1,41.7,08.2,0000.0,0011.03,0005.19,0004.64
2022-07-10 19:53:00,,0829.1,5.01,0.00,40.6,39.8,00.0,49.1,41.7,08.1,0000.0,0010.42,0005.17,0004.62
2022-07-10 19:54:00,,0829.0,5.00,0.00,40.7,39.8,00.0,49.2,41.8,08.2,0000.0,0010.50,0005.17,0004.60
2022-07-10 19:55:00,,0829.1,5.00,0.00,40.7,39.8,00.0,49.2,41.8,08.2,0000.0,0010.66,0005.20,0004.60
2022-07-10 19:56:00,,0829.1,5.01,0.00,40.7,39.8,00.0,49.2,41.8,08.1,0000.0,0011.16,0005.23,0004.59
2022-07-10 19:57:00,,0829.0,4.99,0.00,40.7,39.9,00.0,49.2,41.8,08.0,0000.0,0010.72,0005.19,0004.55
2022-07-10 19:58:00,,0829.1,5.01,0.00,40.8,39.9,00.0,49.3,41.8,08.0,0000.0,0010.35,0005.14,0004.53
2022-07-10 19:59:00,,0829.1,5.01,0.00,40.8,39.9,00.0,49.3,41.8,07.9,0000.0,0010.58,0005.11,0004.50
